Location: Diguira
(13.1838°N, 4.9109°W)
Time: 17:16:48
(UTC+00:00)

ASTRO E2 - Pass Details

Date: 18 September 2020
Orbit: 509 x 515 km, 31.4° (Epoch: 24 October)

Event Time Altitude Azimuth Distance (km) Brightness Sun altitude
Rises 20:05:01 0° 291° (WNW) 2,601 7.5 -26.7°
Reaches altitude 10° 20:07:19 10° 285° (WNW) 1,717 6.3 -27.3°
Enters shadow 20:09:54 33° 256° (WSW) 875 4.3 -27.9°
